Lewes DE-Nassau DE USA current weather conditions

sailwx.info

Wind from 025 at 8 knots gusting 12

Air temperature 6.9° C
Dewpoint 5.6° C

Last reported at 2019-Nov-17 22:05 UTC.
Time now 2019-Nov-17 22:39 UTC

Location: N 38°43' W 075°09'.
View on Google Maps.

See reports from other nearby stations

  
Tides and Currents Weather Stations Pressure Air Temp Water Temp Dewpoint Dewpoint Depression Visibility Wind Speed Wind Dir Waves Ship Positions
date/time (UTC)wind fromknots sea level pressurealtimeterstation pressurevisibilityair tempwater tempwave heightnotes
2019-Nov-17 22:05 025 8 gusting 12 6.9
2019-Nov-17 22:00 015 7 gusting 11 6.9
2019-Nov-17 21:55 017 7 gusting 11 7.0
2019-Nov-17 21:50 029 7 gusting 10 7.0
2019-Nov-17 21:45 024 8 gusting 13 7.1
2019-Nov-17 21:40 024 7 gusting 12 7.1
2019-Nov-17 21:35 025 8 gusting 15 7.1
2019-Nov-17 21:30 031 8 gusting 12 7.1
2019-Nov-17 21:25 026 7 gusting 11 7.0
2019-Nov-17 21:20 025 7 gusting 11 7.0
2019-Nov-17 21:15 022 7 gusting 9 7.0
2019-Nov-17 21:10 024 7 gusting 10 6.9
2019-Nov-17 21:05 019 8 gusting 11 6.9
2019-Nov-17 21:00 017 7 gusting 10 6.9
2019-Nov-17 20:55 022 8 gusting 11 6.8
2019-Nov-17 20:50 021 9 gusting 12 6.8
2019-Nov-17 20:45 022 9 gusting 13 6.8
2019-Nov-17 20:40 025 9 gusting 12 6.9
2019-Nov-17 20:35 021 10 gusting 15 6.8
2019-Nov-17 20:30 017 9 gusting 12 6.9
2019-Nov-17 20:25 017 8 gusting 11 7.0
2019-Nov-17 20:20 023 8 gusting 11 7.0
2019-Nov-17 20:15 019 8 gusting 13 7.0
2019-Nov-17 20:10 018 8 gusting 13 7.0
2019-Nov-17 20:05 018 7 gusting 10 7.0
2019-Nov-17 20:00 021 7 gusting 11 7.0
2019-Nov-17 19:55 024 9 gusting 12 6.9
2019-Nov-17 19:50 019 9 gusting 12 6.9
2019-Nov-17 19:45 021 7 gusting 11 6.9
2019-Nov-17 19:40 017 7 gusting 11 6.8
2019-Nov-17 19:35 022 8 gusting 12 6.7
2019-Nov-17 19:30 019 6 gusting 9 6.6
2019-Nov-17 19:25 017 8 gusting 12 6.5
2019-Nov-17 19:20 020 8 gusting 14 6.4
2019-Nov-17 19:15 022 8 gusting 12 6.4
2019-Nov-17 19:10 021 8 gusting 12 6.4
2019-Nov-17 19:05 021 9 gusting 13 6.3
2019-Nov-17 19:00 018 9 gusting 15 6.2
2019-Nov-17 18:55 019 10 gusting 14 6.2
2019-Nov-17 18:50 020 10 gusting 14 6.2
2019-Nov-17 18:45 020 10 gusting 15 6.2
2019-Nov-17 18:40 019 10 gusting 17 6.1
2019-Nov-17 18:35 020 11 gusting 17 6.2
2019-Nov-17 18:30 015 10 gusting 15 6.2
2019-Nov-17 18:25 020 9 gusting 14 6.2
2019-Nov-17 18:20 018 10 gusting 14 6.2
2019-Nov-17 18:15 019 11 gusting 14 6.2
2019-Nov-17 18:10 022 9 gusting 14 6.2
2019-Nov-17 18:05 020 11 gusting 15 6.2
2019-Nov-17 18:00 016 11 gusting 15 6.1
2019-Nov-17 17:55 015 10 gusting 14 6.1
2019-Nov-17 17:50 016 8 gusting 14 6.2
2019-Nov-17 17:45 018 9 gusting 14 6.0
2019-Nov-17 17:40 017 11 gusting 16 6.0
2019-Nov-17 17:35 017 11 gusting 18 5.8
2019-Nov-17 17:30 016 11 gusting 15 6.0
2019-Nov-17 17:25 022 10 gusting 15 5.9
2019-Nov-17 17:20 021 12 gusting 18 5.7
2019-Nov-17 17:15 018 11 gusting 16 5.7
2019-Nov-17 17:10 018 11 gusting 17 5.5
2019-Nov-17 17:05 020 10 gusting 16 5.6
2019-Nov-17 17:00 022 10 gusting 14 5.6
2019-Nov-17 16:55 027 10 gusting 17 5.6
2019-Nov-17 16:50 019 9 gusting 14 5.6
2019-Nov-17 16:45 021 10 gusting 15 5.5
2019-Nov-17 16:40 019 10 gusting 16 5.4
2019-Nov-17 16:35 020 10 gusting 15 5.3
2019-Nov-17 16:30 016 11 gusting 15 5.2
2019-Nov-17 16:25 020 11 gusting 16 5.1
2019-Nov-17 16:20 018 12 gusting 17 4.9
2019-Nov-17 16:15 022 10 gusting 17 5.0
2019-Nov-17 16:10 020 11 gusting 18 5.0
2019-Nov-17 16:05 025 10 gusting 16 4.7
2019-Nov-17 16:00 021 11 gusting 16 4.7
2019-Nov-17 15:55 021 10 gusting 16 4.5
2019-Nov-17 15:50 019 11 gusting 15 4.4
2019-Nov-17 15:45 022 10 gusting 16 4.4
2019-Nov-17 15:40 021 11 gusting 15 4.2
2019-Nov-17 15:35 015 10 gusting 16 4.2
2019-Nov-17 15:30 023 10 gusting 15 4.2
2019-Nov-17 15:25 021 10 gusting 18 4.1
2019-Nov-17 15:20 017 11 gusting 16 4.1
2019-Nov-17 15:15 025 11 gusting 16 3.9
2019-Nov-17 15:10 023 11 gusting 15 4.0
2019-Nov-17 15:05 019 11 gusting 16 3.8
2019-Nov-17 15:00 020 11 gusting 16 3.9
2019-Nov-17 14:55 025 11 gusting 16 3.7
2019-Nov-17 14:50 026 10 gusting 16 3.8
2019-Nov-17 14:45 023 10 gusting 15 3.6
2019-Nov-17 14:40 023 11 gusting 18 3.6
2019-Nov-17 14:35 026 12 gusting 17 3.4
2019-Nov-17 14:30 032 10 gusting 14 3.5
2019-Nov-17 14:25 021 12 gusting 17 3.4
2019-Nov-17 14:20 024 11 gusting 18 3.3
2019-Nov-17 14:15 022 11 gusting 17 3.4
2019-Nov-17 14:10 025 10 gusting 18 3.3
2019-Nov-17 14:05 019 11 gusting 15 3.3
2019-Nov-17 14:00 023 12 gusting 17 3.2
2019-Nov-17 13:55 025 11 gusting 15 3.1
2019-Nov-17 13:50 020 13 gusting 19 3.1
2019-Nov-17 13:45 024 12 gusting 18 3.1
2019-Nov-17 13:40 023 12 gusting 18 3.0
2019-Nov-17 13:35 024 12 gusting 17 3.0
2019-Nov-17 13:30 023 13 gusting 19 3.0
2019-Nov-17 13:25 018 11 gusting 16 3.0
2019-Nov-17 13:20 024 12 gusting 18 3.0
2019-Nov-17 13:15 019 12 gusting 18 3.0
2019-Nov-17 13:10 020 15 gusting 21 3.0
2019-Nov-17 13:05 022 11 gusting 16 3.1
2019-Nov-17 13:00 020 11 gusting 16 3.1
2019-Nov-17 12:55 022 12 gusting 18 3.1
2019-Nov-17 12:50 023 10 gusting 18 3.2
2019-Nov-17 12:45 022 12 gusting 18 3.2
2019-Nov-17 12:40 021 11 gusting 17 3.2
2019-Nov-17 12:35 026 12 gusting 18 3.2
2019-Nov-17 12:30 022 13 gusting 16 3.1
2019-Nov-17 12:25 021 12 gusting 18 3.2
2019-Nov-17 12:20 019 12 gusting 18 3.1
2019-Nov-17 12:15 019 12 gusting 17 3.1
2019-Nov-17 12:10 017 12 gusting 17 3.2
2019-Nov-17 12:05 022 11 gusting 18 3.2
2019-Nov-17 12:00 023 12 gusting 19 3.3
2019-Nov-17 11:55 021 10 gusting 17 3.3
2019-Nov-17 11:50 023 12 gusting 17 3.2
2019-Nov-17 11:45 021 13 gusting 19 3.1
2019-Nov-17 11:40 026 11 gusting 15 3.2
2019-Nov-17 11:35 027 12 gusting 18 3.2
2019-Nov-17 11:30 024 11 gusting 17 3.1
2019-Nov-17 11:25 026 11 gusting 17 3.0
2019-Nov-17 11:20 026 11 gusting 15 3.0
2019-Nov-17 11:15 024 10 gusting 15 3.2
2019-Nov-17 11:10 022 11 gusting 18 3.3
2019-Nov-17 11:05 027 10 gusting 16 3.4
2019-Nov-17 11:00 027 12 gusting 17 3.4
2019-Nov-17 10:55 022 12 gusting 19 3.4
2019-Nov-17 10:50 022 12 gusting 16 3.5
2019-Nov-17 10:45 022 11 gusting 17 3.6
2019-Nov-17 10:40 025 9 gusting 16 3.6
2019-Nov-17 10:35 023 10 gusting 16 3.7
2019-Nov-17 10:30 022 12 gusting 16 3.9
2019-Nov-17 10:25 022 9 gusting 14 3.9
2019-Nov-17 10:20 023 11 gusting 16 3.9
2019-Nov-17 10:15 029 10 gusting 15 4.0
2019-Nov-17 10:10 024 9 gusting 13 3.9
2019-Nov-17 10:05 025 11 gusting 18 3.9
2019-Nov-17 10:00 023 12 gusting 17 3.9
2019-Nov-17 09:55 021 9 gusting 14 3.8
2019-Nov-17 09:50 021 11 gusting 16 3.7
2019-Nov-17 09:45 019 11 gusting 14 3.6
2019-Nov-17 09:40 020 9 gusting 14 3.6
2019-Nov-17 09:35 022 10 gusting 14 3.7
2019-Nov-17 09:30 018 10 gusting 14 3.9
2019-Nov-17 09:25 021 9 gusting 13 4.0
2019-Nov-17 09:20 027 9 gusting 12 4.2
2019-Nov-17 09:15 023 9 gusting 12 4.3
2019-Nov-17 09:10 024 7 gusting 11 4.3
2019-Nov-17 09:05 023 9 gusting 13 4.2
2019-Nov-17 09:00 028 9 gusting 13 4.3
2019-Nov-17 08:55 022 9 gusting 14 4.4
2019-Nov-17 08:50 020 9 gusting 15 4.5
2019-Nov-17 08:45 023 8 gusting 11 4.7
2019-Nov-17 08:40 027 9 gusting 14 4.8
2019-Nov-17 08:35 020 10 gusting 14 5.5
2019-Nov-17 08:30 043 11 gusting 17 7.3
2019-Nov-17 08:25 054 10 gusting 17 7.5
2019-Nov-17 08:20 050 10 gusting 18 7.6
2019-Nov-17 08:15 055 10 gusting 17 7.6
2019-Nov-17 08:10 056 10 gusting 18 7.7
2019-Nov-17 08:05 056 9 gusting 22 7.8
2019-Nov-17 08:00 053 10 gusting 17 7.8
2019-Nov-17 07:55 056 9 gusting 15 7.8
2019-Nov-17 07:50 061 11 gusting 22 7.5
2019-Nov-17 07:45 055 8 gusting 15 7.5
2019-Nov-17 07:40 059 11 gusting 18 7.6
2019-Nov-17 07:35 063 11 gusting 17 7.6
2019-Nov-17 07:30 051 9 gusting 15 7.5
2019-Nov-17 07:25 056 9 gusting 14 7.6
2019-Nov-17 07:20 060 10 gusting 17 7.6
2019-Nov-17 07:15 057 8 gusting 15 7.7
2019-Nov-17 07:10 059 9 gusting 15 7.7
2019-Nov-17 07:05 059 10 gusting 21 7.6
2019-Nov-17 07:00 057 10 gusting 18 7.6
2019-Nov-17 06:55 058 9 gusting 18 7.7
2019-Nov-17 06:50 060 11 gusting 17 7.6
2019-Nov-17 06:45 061 10 gusting 17 7.4
2019-Nov-17 06:40 059 10 gusting 16 7.3
2019-Nov-17 06:35 066 9 gusting 14 7.2
2019-Nov-17 06:30 065 10 gusting 17 7.2
2019-Nov-17 06:25 057 10 gusting 22 7.2
2019-Nov-17 06:20 061 10 gusting 15 7.1
2019-Nov-17 06:15 059 10 gusting 16 7.1
2019-Nov-17 06:10 063 9 gusting 18 7.2
2019-Nov-17 06:05 060 11 gusting 19 7.4
2019-Nov-17 06:00 064 9 gusting 17 7.5
2019-Nov-17 05:55 064 9 gusting 17 7.6
2019-Nov-17 05:50 061 12 gusting 18 7.6
2019-Nov-17 05:45 062 11 gusting 17 7.6
2019-Nov-17 05:40 063 9 gusting 16 7.6
2019-Nov-17 05:35 064 10 gusting 15 7.6
2019-Nov-17 05:30 066 9 gusting 16 7.5
2019-Nov-17 05:25 064 10 gusting 18 7.4
2019-Nov-17 05:20 059 10 gusting 17 7.4
2019-Nov-17 05:15 063 9 gusting 16 7.5
2019-Nov-17 05:10 056 12 gusting 23 7.6
2019-Nov-17 05:05 064 11 gusting 18 7.6
2019-Nov-17 05:00 064 10 gusting 17 7.5
2019-Nov-17 04:55 063 10 gusting 17 7.5
2019-Nov-17 04:50 064 11 gusting 20 7.6
2019-Nov-17 04:45 059 8 gusting 18 7.6
2019-Nov-17 04:40 062 9 gusting 19 7.6
2019-Nov-17 04:35 063 11 gusting 21 7.8
2019-Nov-17 04:30 065 9 gusting 20 7.7
2019-Nov-17 04:25 063 9 gusting 16 7.7
2019-Nov-17 04:20 064 9 gusting 21 7.7
2019-Nov-17 04:15 061 10 gusting 19 7.7
2019-Nov-17 04:10 057 12 gusting 18 7.7
2019-Nov-17 04:05 064 8 gusting 13 7.6
2019-Nov-17 04:00 065 10 gusting 16 7.7
2019-Nov-17 03:55 063 10 gusting 23 7.7
2019-Nov-17 03:50 064 10 gusting 17 7.5
2019-Nov-17 03:45 062 11 gusting 21 7.5
2019-Nov-17 03:40 060 10 gusting 19 7.5
2019-Nov-17 03:35 062 9 gusting 17 7.5
2019-Nov-17 03:30 060 8 gusting 14 7.5
2019-Nov-17 03:25 064 11 gusting 17 7.4
2019-Nov-17 03:20 059 11 gusting 18 7.3
2019-Nov-17 03:15 060 11 gusting 21 7.3
2019-Nov-17 03:10 054 10 gusting 20 7.2
2019-Nov-17 03:05 056 10 gusting 17 7.2
2019-Nov-17 03:00 062 10 gusting 16 7.0
2019-Nov-17 02:55 062 11 gusting 17 7.2
2019-Nov-17 02:50 059 11 gusting 18 7.4
2019-Nov-17 02:45 055 12 gusting 21 7.3
2019-Nov-17 02:40 058 11 gusting 20 7.4
2019-Nov-17 02:35 063 12 gusting 20 7.5
2019-Nov-17 02:30 061 12 gusting 25 7.4
2019-Nov-17 02:25 054 10 gusting 17 7.3
2019-Nov-17 02:20 053 10 gusting 17 7.3
2019-Nov-17 02:15 057 12 gusting 19 7.2
2019-Nov-17 02:10 058 11 gusting 17 7.1
2019-Nov-17 02:05 061 12 gusting 21 7.2
2019-Nov-17 02:00 057 12 gusting 20 7.3
2019-Nov-17 01:55 061 10 gusting 20 7.3
2019-Nov-17 01:50 064 11 gusting 19 7.2
2019-Nov-17 01:45 057 11 gusting 21 7.2
2019-Nov-17 01:40 060 11 gusting 20 7.3
2019-Nov-17 01:35 060 12 gusting 25 7.2
2019-Nov-17 01:30 056 10 gusting 17 7.2
2019-Nov-17 01:25 059 10 gusting 17 7.1
2019-Nov-17 01:20 057 11 gusting 19 7.0
2019-Nov-17 01:15 057 13 gusting 23 7.1
2019-Nov-17 01:10 056 14 gusting 22 7.2
2019-Nov-17 01:05 057 10 gusting 18 7.1
2019-Nov-17 01:00 061 10 gusting 16 7.0
2019-Nov-17 00:55 055 10 gusting 19 7.0
2019-Nov-17 00:50 059 9 gusting 17 6.9
2019-Nov-17 00:45 052 10 gusting 17 6.9
2019-Nov-17 00:40 056 10 gusting 17 6.9
2019-Nov-17 00:35 052 13 gusting 23 7.0
2019-Nov-17 00:30 057 12 gusting 21 6.9
2019-Nov-17 00:25 054 12 gusting 24 6.9
2019-Nov-17 00:20 058 10 gusting 17 6.8
2019-Nov-17 00:15 058 11 gusting 21 6.9
2019-Nov-17 00:10 056 10 gusting 18 6.7
2019-Nov-17 00:05 049 10 gusting 17 6.8
2019-Nov-17 00:00 050 12 gusting 23 6.9
2019-Nov-16 23:55 054 11 gusting 18 6.9
2019-Nov-16 23:50 057 10 gusting 19 6.9
2019-Nov-16 23:45 058 8 gusting 12 6.9
2019-Nov-16 23:40 054 12 gusting 20 6.8
2019-Nov-16 23:35 055 10 gusting 19 6.7
2019-Nov-16 23:30 053 7 gusting 14 6.7
2019-Nov-16 23:25 059 11 gusting 18 6.8
2019-Nov-16 23:20 057 11 gusting 19 6.7
2019-Nov-16 23:15 052 10 gusting 21 6.4
2019-Nov-16 23:10 049 13 gusting 19 6.3
2019-Nov-16 23:05 055 11 gusting 22 6.2
2019-Nov-16 23:00 050 11 gusting 16 6.2
2019-Nov-16 22:55 049 10 gusting 17 6.2
2019-Nov-16 22:50 049 11 gusting 17 6.1
2019-Nov-16 22:45 056 11 gusting 20 6.1
2019-Nov-16 22:40 053 11 gusting 19 6.1
2019-Nov-16 22:35 050 12 gusting 19 6.0
2019-Nov-16 22:30 051 11 gusting 19 6.1
2019-Nov-16 22:25 048 11 gusting 16 6.1
2019-Nov-16 22:20 054 12 gusting 19 6.1
2019-Nov-16 22:15 058 10 gusting 18 6.1
2019-Nov-16 22:10 055 11 gusting 17 6.1
2019-Nov-16 22:05 053 10 gusting 19 6.1
2019-Nov-16 22:00 051 13 gusting 19 6.0
2019-Nov-16 21:55 048 14 gusting 29 6.2
2019-Nov-16 21:50 055 10 gusting 19 6.3
2019-Nov-16 21:45 052 12 gusting 22 6.3
2019-Nov-16 21:40 054 10 gusting 18 6.2
2019-Nov-16 21:35 050 12 gusting 19 6.4
2019-Nov-16 21:30 056 11 gusting 17 6.3
2019-Nov-16 21:25 056 10 gusting 17 6.4
2019-Nov-16 21:20 057 11 gusting 17 6.4
2019-Nov-16 21:15 053 12 gusting 27 6.4
2019-Nov-16 21:10 055 10 gusting 19 6.4
2019-Nov-16 21:05 050 12 gusting 20 6.4
2019-Nov-16 21:00 059 12 gusting 18 6.4
2019-Nov-16 20:55 053 11 gusting 16 6.6
2019-Nov-16 20:50 047 13 gusting 21 6.5
2019-Nov-16 20:45 054 11 gusting 16 6.5
2019-Nov-16 20:40 046 11 gusting 22 6.4
2019-Nov-16 20:35 050 12 gusting 26 6.5
2019-Nov-16 20:30 049 12 gusting 20 6.5
2019-Nov-16 20:25 055 12 gusting 21 6.5
2019-Nov-16 20:20 053 11 gusting 19 6.4
2019-Nov-16 20:15 053 12 gusting 20 6.4
2019-Nov-16 20:10 051 12 gusting 20 6.4
2019-Nov-16 20:05 053 11 gusting 22 6.3
2019-Nov-16 20:00 051 13 gusting 18 6.3
2019-Nov-16 19:55 052 12 gusting 19 6.3
2019-Nov-16 19:50 050 12 gusting 20 6.3
2019-Nov-16 19:45 053 10 gusting 20 6.3
2019-Nov-16 19:40 051 14 gusting 21 6.3
2019-Nov-16 19:35 048 13 gusting 21 6.3
2019-Nov-16 19:30 054 13 gusting 21 6.4
2019-Nov-16 19:25 053 12 gusting 24 6.4
2019-Nov-16 19:20 054 13 gusting 22 6.5
2019-Nov-16 19:15 057 11 gusting 19 6.6
2019-Nov-16 19:10 060 11 gusting 22 6.7
2019-Nov-16 19:05 062 11 gusting 23 6.6
2019-Nov-16 19:00 056 10 gusting 20 6.6
2019-Nov-16 18:55 065 12 gusting 20 6.5
2019-Nov-16 18:50 058 12 gusting 20 6.4
2019-Nov-16 18:45 051 15 gusting 23 6.4
2019-Nov-16 18:40 052 12 gusting 24 6.6
2019-Nov-16 18:35 055 11 gusting 24 6.5
2019-Nov-16 18:30 056 12 gusting 21 6.5
2019-Nov-16 18:25 056 11 gusting 19 6.6
2019-Nov-16 18:20 047 13 gusting 25 6.7
2019-Nov-16 18:15 053 14 gusting 21 6.9
2019-Nov-16 18:10 050 16 gusting 27 7.0
2019-Nov-16 18:05 052 14 gusting 23 7.0
2019-Nov-16 18:00 051 13 gusting 24 7.0
2019-Nov-16 17:55 053 13 gusting 24 6.9
2019-Nov-16 17:50 051 15 gusting 31 6.8
2019-Nov-16 17:45 057 14 gusting 30 7.0
2019-Nov-16 17:40 055 13 gusting 23 6.9
2019-Nov-16 17:35 060 11 gusting 20 7.2
2019-Nov-16 17:30 048 16 gusting 27 6.9
2019-Nov-16 17:25 055 12 gusting 20 7.1
2019-Nov-16 17:20 059 12 gusting 25 7.2
2019-Nov-16 17:15 054 13 gusting 21 6.9
2019-Nov-16 17:10 050 16 gusting 24 6.9
2019-Nov-16 17:05 051 14 gusting 25 6.9
2019-Nov-16 17:00 049 16 gusting 26 7.3
2019-Nov-16 16:55 046 18 gusting 25 6.8
2019-Nov-16 16:50 049 14 gusting 28 6.9
2019-Nov-16 16:45 046 15 gusting 25 6.9
2019-Nov-16 16:40 049 15 gusting 26 6.9
2019-Nov-16 16:35 051 15 gusting 23 6.8
2019-Nov-16 16:30 051 13 gusting 28 7.2
2019-Nov-16 16:25 044 15 gusting 27 7.2
2019-Nov-16 16:20 045 17 gusting 29 7.5
2019-Nov-16 16:15 051 14 gusting 26 7.4
2019-Nov-16 16:10 049 15 gusting 33 7.5
2019-Nov-16 16:05 051 11 gusting 20 6.9
2019-Nov-16 16:00 049 16 gusting 27 6.6
2019-Nov-16 15:55 046 13 gusting 22 6.6
2019-Nov-16 15:50 057 14 gusting 22 6.6
2019-Nov-16 15:45 047 17 gusting 26 6.6
2019-Nov-16 15:40 047 12 gusting 21 6.5
2019-Nov-16 15:35 047 12 gusting 20 6.5
2019-Nov-16 15:30 044 15 gusting 24 6.4
2019-Nov-16 15:25 042 14 gusting 21 6.4
2019-Nov-16 15:20 048 16 gusting 24 6.1
2019-Nov-16 15:15 045 15 gusting 22 6.1
2019-Nov-16 15:10 037 14 gusting 21 6.2
2019-Nov-16 15:05 043 12 gusting 21 6.0
2019-Nov-16 15:00 040 14 gusting 22 5.8
2019-Nov-16 14:55 046 15 gusting 21 5.7
2019-Nov-16 14:50 043 15 gusting 26 5.7
2019-Nov-16 14:45 045 14 gusting 23 5.7
2019-Nov-16 14:40 042 13 gusting 23 5.7
2019-Nov-16 14:35 043 16 gusting 26 5.7
2019-Nov-16 14:30 040 13 gusting 22 5.7
2019-Nov-16 14:25 041 13 gusting 20 5.5
2019-Nov-16 14:20 034 16 gusting 21 5.5
2019-Nov-16 14:15 046 15 gusting 23 5.5
2019-Nov-16 14:10 037 15 gusting 25 5.4
2019-Nov-16 14:05 042 14 gusting 22 5.4
2019-Nov-16 14:00 041 13 gusting 18 5.5
2019-Nov-16 13:55 034 13 gusting 19 5.5
2019-Nov-16 13:50 027 12 gusting 19 5.6
2019-Nov-16 13:45 028 11 gusting 17 5.5
2019-Nov-16 13:40 027 12 gusting 18 5.4
2019-Nov-16 13:35 029 13 gusting 19 5.3
2019-Nov-16 13:30 029 15 gusting 20 5.3
2019-Nov-16 13:25 029 12 gusting 18 5.3
2019-Nov-16 13:20 031 12 gusting 17 5.3
2019-Nov-16 13:15 034 11 gusting 17 5.2
2019-Nov-16 13:10 032 13 gusting 19 5.3
2019-Nov-16 13:05 028 13 gusting 18 5.3
2019-Nov-16 13:00 025 12 gusting 18 5.3
2019-Nov-16 12:55 028 13 gusting 21 5.4
2019-Nov-16 12:50 027 12 gusting 19 5.5
2019-Nov-16 12:45 029 13 gusting 20 5.5
2019-Nov-16 12:40 029 13 gusting 19 5.3
2019-Nov-16 12:35 026 11 gusting 19 5.1
2019-Nov-16 12:30 026 11 gusting 18 4.9
2019-Nov-16 12:25 026 11 gusting 20 4.8
2019-Nov-16 12:20 026 11 gusting 17 4.8
2019-Nov-16 12:15 022 13 gusting 19 4.8
2019-Nov-16 12:10 024 11 gusting 15 4.7
2019-Nov-16 12:05 023 11 gusting 17 4.6
2019-Nov-16 12:00 025 12 gusting 21 4.7
2019-Nov-16 11:55 024 12 gusting 17 4.7
2019-Nov-16 11:50 023 12 gusting 20 4.6
2019-Nov-16 11:45 021 12 gusting 19 4.5
2019-Nov-16 11:40 023 12 gusting 18 4.6
2019-Nov-16 11:35 023 11 gusting 16 4.6
2019-Nov-16 11:30 021 13 gusting 17 4.6
2019-Nov-16 11:25 019 13 gusting 20 4.6
2019-Nov-16 11:20 020 12 gusting 19 4.6
2019-Nov-16 11:15 024 12 gusting 21 4.6
2019-Nov-16 11:10 022 12 gusting 19 4.6
2019-Nov-16 11:05 022 12 gusting 17 4.5
2019-Nov-16 11:00 024 14 gusting 20 4.7
2019-Nov-16 10:55 020 13 gusting 18 4.7
2019-Nov-16 10:50 024 13 gusting 21 4.6
2019-Nov-16 10:45 020 14 gusting 20 4.7
2019-Nov-16 10:40 021 10 gusting 16 4.6
2019-Nov-16 10:35 020 14 gusting 21 4.7
2019-Nov-16 10:30 019 12 gusting 18 4.6
2019-Nov-16 10:25 026 12 gusting 19 4.7
2019-Nov-16 10:20 025 14 gusting 20 4.7
2019-Nov-16 10:15 027 12 gusting 19 4.7
2019-Nov-16 10:10 023 13 gusting 21 4.7
2019-Nov-16 10:05 023 12 gusting 16 4.8
2019-Nov-16 10:00 024 14 gusting 20 4.8
2019-Nov-16 09:55 031 13 gusting 20 4.8
2019-Nov-16 09:50 025 12 gusting 23 4.8
2019-Nov-16 09:45 027 11 gusting 17 4.9
2019-Nov-16 09:40 026 14 gusting 20 4.9
2019-Nov-16 09:35 030 13 gusting 22 4.8
2019-Nov-16 09:30 024 12 gusting 17 4.9
2019-Nov-16 09:25 026 12 gusting 19 4.9
2019-Nov-16 09:20 029 12 gusting 17 4.9
2019-Nov-16 09:15 028 12 gusting 20 5.0
2019-Nov-16 09:10 025 13 gusting 19 5.1
2019-Nov-16 09:05 025 13 gusting 19 5.0
2019-Nov-16 09:00 029 16 gusting 26 5.2
2019-Nov-16 08:55 024 14 gusting 22 5.1
2019-Nov-16 08:50 030 13 gusting 20 5.2
2019-Nov-16 08:45 026 14 gusting 23 5.2
2019-Nov-16 08:40 028 14 gusting 22 5.2
2019-Nov-16 08:35 024 14 gusting 21 5.2
2019-Nov-16 08:30 023 11 gusting 18 5.2
2019-Nov-16 08:25 030 14 gusting 22 5.4
2019-Nov-16 08:20 030 16 gusting 22 5.3
2019-Nov-16 08:15 034 14 gusting 20 5.4
2019-Nov-16 08:10 029 12 gusting 16 5.3
2019-Nov-16 08:05 033 12 gusting 18 5.4
2019-Nov-16 08:00 028 12 gusting 17 5.4
2019-Nov-16 07:55 031 12 gusting 22 5.5
2019-Nov-16 07:50 029 13 gusting 18 5.6
2019-Nov-16 07:45 028 13 gusting 19 5.5
2019-Nov-16 07:40 028 10 gusting 20 5.6
2019-Nov-16 07:35 027 12 gusting 18 5.6
2019-Nov-16 07:30 028 14 gusting 19 5.7
2019-Nov-16 07:25 026 11 gusting 18 5.7
2019-Nov-16 07:20 023 13 gusting 20 5.8
2019-Nov-16 07:15 025 12 gusting 19 5.8
2019-Nov-16 07:10 024 12 gusting 20 5.9
2019-Nov-16 07:05 024 11 gusting 18 6.1
2019-Nov-16 07:00 028 11 gusting 17 6.3
2019-Nov-16 06:55 026 12 gusting 18 6.4
2019-Nov-16 06:50 027 12 gusting 18 6.3
2019-Nov-16 06:45 031 12 gusting 22 6.3
2019-Nov-16 06:40 025 10 gusting 17 6.5
2019-Nov-16 06:35 029 13 gusting 19 6.7
2019-Nov-16 06:30 021 12 gusting 18 7.0
2019-Nov-16 06:25 022 11 gusting 20 7.1
2019-Nov-16 06:20 019 12 gusting 18 7.3
2019-Nov-16 06:15 021 11 gusting 18 7.5
2019-Nov-16 06:10 023 13 gusting 19 7.6
2019-Nov-16 06:05 020 10 gusting 15 7.7
2019-Nov-16 06:00 020 11 gusting 14 7.8
2019-Nov-16 05:55 017 11 gusting 17 7.9
2019-Nov-16 05:50 020 10 gusting 17 8.0
2019-Nov-16 05:45 022 11 gusting 19 8.2
2019-Nov-16 05:40 022 11 gusting 16 8.3
2019-Nov-16 05:35 019 13 gusting 19 8.5
2019-Nov-16 05:30 020 13 gusting 22 8.6
2019-Nov-16 05:25 018 10 gusting 19 8.6
2019-Nov-16 05:20 016 10 gusting 17 8.7
2019-Nov-16 05:15 017 11 gusting 19 8.8
2019-Nov-16 05:10 019 10 gusting 20 8.8
2019-Nov-16 05:05 017 9 gusting 15 8.9
2019-Nov-16 05:00 016 9 gusting 12 9.0
2019-Nov-16 04:55 015 9 gusting 15 8.9
2019-Nov-16 04:50 016 8 gusting 15 8.8
2019-Nov-16 04:45 015 8 gusting 11 9.0
2019-Nov-16 04:40 010 7 gusting 11 9.0
2019-Nov-16 04:35 003 6 gusting 9 9.0
2019-Nov-16 04:30 014 6 gusting 10 9.1
2019-Nov-16 04:25 007 6 gusting 11 9.1
2019-Nov-16 04:20 008 5 gusting 10 9.1
2019-Nov-16 04:15 011 6 gusting 12 9.1
2019-Nov-16 04:10 004 6 gusting 9 8.9
2019-Nov-16 04:05 003 5 gusting 8 8.7
2019-Nov-16 04:00 003 5 gusting 7 8.4
2019-Nov-16 03:55 354 4 gusting 6 8.3
2019-Nov-16 03:50 359 4 gusting 6 8.2
2019-Nov-16 03:45 359 4 gusting 6 8.2
2019-Nov-16 03:40 355 4 gusting 6 8.1
2019-Nov-16 03:35 354 3 gusting 6 8.1
2019-Nov-16 03:30 356 4 gusting 5 8.1
2019-Nov-16 03:25 001 4 gusting 6 8.0
2019-Nov-16 03:20 358 3 gusting 4 7.8
2019-Nov-16 03:15 350 2 gusting 4 7.6
2019-Nov-16 03:10 349 2 gusting 3 7.5
2019-Nov-16 03:05 337 3 gusting 4 7.4
2019-Nov-16 03:00 346 2 gusting 4 7.5
2019-Nov-16 02:55 7.5
2019-Nov-16 02:50 359 1 gusting 3 7.4
2019-Nov-16 02:45 354 2 gusting 3 7.2
2019-Nov-16 02:40 346 2 gusting 2 7.2
2019-Nov-16 02:35 347 2 gusting 3 7.1
2019-Nov-16 02:30 342 1 gusting 2 6.9
2019-Nov-16 02:25 352 1 gusting 2 6.8
2019-Nov-16 02:20 015 1 gusting 3 6.9
2019-Nov-16 02:15 352 2 gusting 3 7.1
2019-Nov-16 02:10 342 2 gusting 3 6.9
2019-Nov-16 02:05 326 1 gusting 2 6.9
2019-Nov-16 02:00 335 1 gusting 2 6.9
2019-Nov-16 01:55 334 1 gusting 2 7.1
2019-Nov-16 01:50 332 1 gusting 2 7.0
2019-Nov-16 01:45 343 2 gusting 2 7.0
2019-Nov-16 01:40 346 1 gusting 2 6.8
2019-Nov-16 01:35 360 1 gusting 2 6.2
2019-Nov-16 01:30 028 0 gusting 1 6.1
2019-Nov-16 01:25 6.2
2019-Nov-16 01:20 315 0 gusting 1 6.5
2019-Nov-16 01:15 324 1 gusting 2 6.7
2019-Nov-16 01:10 324 2 gusting 2 6.6
2019-Nov-16 01:05 347 1 gusting 2 6.9
2019-Nov-16 01:00 357 1 gusting 2 6.9
2019-Nov-16 00:55 357 1 gusting 2 6.4
2019-Nov-16 00:50 017 0 gusting 0 6.6
2019-Nov-16 00:45 020 0 gusting 1 6.6
2019-Nov-16 00:40 023 1 gusting 2 6.5
2019-Nov-16 00:35 6.4
2019-Nov-16 00:30 257 0 gusting 0 6.5
2019-Nov-16 00:25 257 0 gusting 0 6.3
2019-Nov-16 00:20 253 0 gusting 0 6.4
2019-Nov-16 00:15 252 0 gusting 0 6.3
2019-Nov-16 00:10 256 0 gusting 1 6.3
2019-Nov-16 00:05 256 0 gusting 1 6.5
2019-Nov-16 00:00 249 1 gusting 2 6.7
2019-Nov-15 23:55 258 1 gusting 1 6.6
2019-Nov-15 23:50 290 0 gusting 1 6.8
2019-Nov-15 23:45 299 1 gusting 2 6.6
2019-Nov-15 23:40 6.4
2019-Nov-15 23:35 6.4
2019-Nov-15 23:30 6.5
2019-Nov-15 23:25 6.7
2019-Nov-15 23:20 074 0 gusting 0 6.9
2019-Nov-15 23:15 074 0 gusting 0 7.1
2019-Nov-15 23:10 074 0 gusting 1 7.1
2019-Nov-15 23:05 074 0 gusting 1 7.2
2019-Nov-15 23:00 7.4
2019-Nov-15 22:55 327 0 gusting 0 7.5
2019-Nov-15 22:50 107 0 gusting 1 7.5
2019-Nov-15 22:45 118 0 gusting 0 7.4
2019-Nov-15 22:40 7.5
2019-Nov-15 22:35 7.7
2019-Nov-15 22:30 7.8
2019-Nov-15 22:25 8.1
2019-Nov-15 22:20 8.2
2019-Nov-15 22:15 119 0 gusting 0 8.4
2019-Nov-15 22:10 068 0 gusting 0 8.7
2019-Nov-15 22:05 353 0 gusting 1 8.9
2019-Nov-15 22:00 352 1 gusting 1 8.9